Location: Dodgeville, WI 53533, USA
(43.0344°N, 90.0900°W)
Time: 18:55:43
(UTC-06:00)

N. Korean satellite - Pass Details

Date: 29 January 2021
Orbit: 451 x 502 km, 97.2° (Epoch: 06 March)

Event Time Altitude Azimuth Distance (km) Brightness Sun altitude
Rises 04:48:01 0° 25° (NNE) 2,490 10.5 -27.5°
Reaches altitude 10° 04:50:21 10° 39° (NE) 1,603 9.6 -27.1°
Maximum altitude 04:53:11 24° 95° (E) 991 8.8 -26.6°
Drops below altitude 10° 04:55:59 10° 151° (SSE) 1,581 9.5 -26.1°
Sets 04:58:16 0° 166° (SSE) 2,445 10.3 -25.7°
